Simultaneous Nadir Overpasses (SNOs) Predictions

Prediction of SNOs between GOES-16 and NOAA-20 Satellite Orbit:

Table of predicted SNOs for the next 14.0 days since TLE Epoch: 9/24/2022
Index Date Time (GOES-16) GOES-16 Lat,Lon NOAA-20 Lat,Lon Distance(km) Time Diff (sec)
1 09/25/2022 06:36:15 0.04, -75.19 0.65, -77.99 318.80 59
2 09/26/2022 06:17:10 0.05, -75.20 -0.35, -73.46 198.08 80
3 09/27/2022 18:39:07 -0.04, -75.22 -0.81, -78.78 404.79 80
4 09/28/2022 18:23:02 -0.04, -75.23 0.20, -74.25 112.37 80
5 09/30/2022 06:44:50 0.04, -75.23 1.02, -79.51 488.13 80
6 10/01/2022 06:23:25 0.04, -75.24 0.01, -74.98 28.95 80
7 10/03/2022 18:26:38 -0.03, -75.26 -0.16, -75.76 57.13 80
8 10/04/2022 18:10:34 -0.03, -75.27 0.85, -71.23 460.18 80
9 10/06/2022 06:32:22 0.02, -75.29 0.30, -76.51 139.47 80
10 10/07/2022 06:10:58 0.02, -75.30 -0.71, -71.98 378.40 80
